| time (UTC) | temp C | wind direction | speed KPH | gust KPH | rain 1hr cm | rain 24hr cm | rain mn cm | humidity % | barometer mb |
| 20260508151605 | 12 | 14 | 4.8 | 9.7 | 0.00 | 0.00 | 0.00 | 47 | 1018.1 |
| 20260508151104 | 11 | 13 | 3.2 | 4.8 | 0.00 | 0.00 | 0.00 | 49 | 1018.2 |
| 20260508150604 | 11 | 13 | 3.2 | 8.0 | 0.00 | 0.00 | 0.00 | 49 | 1018.3 |
| 20260508150105 | 10 | 13 | 3.2 | 4.8 | 0.00 | 0.00 | 0.00 | 49 | 1018.5 |
| 20260508144604 | 9 | 11 | 3.2 | 4.8 | 0.00 | 0.00 | 0.00 | 51 | 1018.5 |
| 20260508143604 | 8 | 11 | 1.6 | 4.8 | 0.00 | 0.00 | 0.00 | 53 | 1018.6 |
| 20260508143104 | 8 | 11 | 3.2 | 4.8 | 0.00 | 0.00 | 0.00 | 52 | 1018.7 |
| 20260508141605 | 7 | 12 | 1.6 | 3.2 | 0.00 | 0.00 | 0.00 | 56 | 1018.6 |
| 20260508141105 | 7 | 12 | 0.0 | 3.2 | 0.00 | 0.00 | 0.00 | 59 | 1018.6 |
| 20260508140605 | 7 | 14 | 0.0 | 3.2 | 0.00 | 0.00 | 0.00 | 60 | 1018.6 |
| 20260508140104 | 7 | 14 | 0.0 | 1.6 | 0.00 | 0.00 | 0.00 | 61 | 1018.7 |
| 20260508134604 | 6 | 14 | 1.6 | 4.8 | 0.00 | 0.00 | 0.00 | 59 | 1018.7 |
| 20260508134104 | 7 | 15 | 1.6 | 3.2 | 0.00 | 0.00 | 0.00 | 59 | 1018.6 |
| 20260508133604 | 7 | 9 | 0.0 | 1.6 | 0.00 | 0.00 | 0.00 | 61 | 1018.6 |
| 20260508133105 | 7 | 9 | 1.6 | 4.8 | 0.00 | 0.00 | 0.00 | 60 | 1018.5 |
| 20260508131605 | 6 | 9 | 1.6 | 4.8 | 0.00 | 0.00 | 0.00 | 62 | 1018.4 |
| 20260508131104 | 5 | 9 | 1.6 | 4.8 | 0.00 | 0.00 | 0.00 | 61 | 1018.4 |
| 20260508130605 | 5 | 9 | 3.2 | 9.7 | 0.00 | 0.00 | 0.00 | 60 | 1018.4 |
| 20260508130105 | 4 | 10 | 4.8 | 16.1 | 0.00 | 0.00 | 0.00 | 61 | 1018.4 |
| 20260508124605 | 3 | 9 | 1.6 | 3.2 | 0.00 | 0.00 | 0.00 | 65 | 1018.2 |
| 20260508124105 | 3 | 9 | 3.2 | 4.8 | 0.00 | 0.00 | 0.00 | 64 | 1018.2 |
| 20260508123604 | 3 | 9 | 0.0 | 1.6 | 0.00 | 0.00 | 0.00 | 65 | 1018.2 |
| 20260508123105 | 3 | 9 | 1.6 | 3.2 | 0.00 | 0.00 | 0.00 | 63 | 1018.2 |
| 20260508121605 | 3 | 11 | 0.0 | 3.2 | 0.00 | 0.00 | 0.00 | 63 | 1018.2 |
| 20260508121105 | 3 | 12 | 0.0 | 3.2 | 0.00 | 0.00 | 0.00 | 63 | 1018.1 |
| 20260508120104 | 4 | 9 | 0.0 | 4.8 | 0.00 | 0.00 | 0.00 | 63 | 1018.2 |
| 20260508114604 | 4 | 3 | 1.6 | 4.8 | 0.00 | 0.00 | 0.00 | 65 | 1018.2 |
| 20260508114104 | 3 | 10 | 1.6 | 8.0 | 0.00 | 0.00 | 0.00 | 65 | 1018.2 |
| 20260508113604 | 3 | 9 | 3.2 | 4.8 | 0.00 | 0.00 | 0.00 | 64 | 1018.2 |
| 20260508113105 | 3 | 9 | 3.2 | 4.8 | 0.00 | 0.00 | 0.00 | 67 | 1018.1 |
| 20260508111605 | 3 | 8 | 0.0 | 1.6 | 0.00 | 0.00 | 0.00 | 65 | 1018.3 |
| 20260508110604 | 4 | 0 | 1.6 | 4.8 | 0.00 | 0.00 | 0.00 | 66 | 1018.2 |
| 20260508104605 | 4 | 9 | 1.6 | 3.2 | 0.00 | 0.00 | 0.00 | 65 | 1018.1 |
| 20260508104104 | 4 | 9 | 1.6 | 4.8 | 0.00 | 0.00 | 0.00 | 64 | 1018.1 |
| 20260508103605 | 4 | 9 | 0.0 | 0.0 | 0.00 | 0.00 | 0.00 | 64 | 1018.1 |
| 20260508103105 | 4 | 9 | 0.0 | 4.8 | 0.00 | 0.00 | 0.00 | 64 | 1018.1 |
| 20260508101605 | 4 | 9 | 1.6 | 4.8 | 0.00 | 0.00 | 0.00 | 66 | 1018.0 |
| 20260508101105 | 4 | 9 | 3.2 | 4.8 | 0.00 | 0.00 | 0.00 | 66 | 1017.9 |
| 20260508100605 | 4 | 10 | 3.2 | 9.7 | 0.00 | 0.00 | 0.00 | 66 | 1018.0 |
| 20260508100104 | 4 | 9 | 1.6 | 4.8 | 0.00 | 0.00 | 0.00 | 67 | 1018.0 |
| 20260508094105 | 4 | 9 | 4.8 | 8.0 | 0.00 | 0.00 | 0.00 | 66 | 1018.0 |
| 20260508093605 | 5 | 9 | 3.2 | 8.0 | 0.00 | 0.00 | 0.00 | 66 | 1018.0 |
| 20260508093104 | 5 | 9 | 3.2 | 8.0 | 0.00 | 0.00 | 0.00 | 64 | 1018.0 |
| 20260508090604 | 5 | 9 | 3.2 | 4.8 | 0.00 | 0.00 | 0.00 | 66 | 1018.0 |
| 20260508090105 | 5 | 9 | 4.8 | 8.0 | 0.00 | 0.00 | 0.00 | 65 | 1017.9 |
| 20260508083605 | 4 | 9 | 1.6 | 3.2 | 0.00 | 0.00 | 0.00 | 65 | 1018.1 |
| 20260508083105 | 5 | 9 | 1.6 | 4.8 | 0.00 | 0.00 | 0.00 | 65 | 1018.1 |
| 20260508080605 | 5 | 9 | 3.2 | 4.8 | 0.00 | 0.00 | 0.00 | 65 | 1018.1 |
| 20260508080105 | 5 | 9 | 1.6 | 16.1 | 0.00 | 0.00 | 0.00 | 66 | 1018.2 |
| 20260508074604 | 5 | 10 | 4.8 | 9.7 | 0.00 | 0.00 | 0.00 | 65 | 1018.3 |
| 20260508073605 | 5 | 9 | 3.2 | 4.8 | 0.00 | 0.00 | 0.00 | 65 | 1018.3 |
| 20260508073104 | 5 | 9 | 4.8 | 8.0 | 0.00 | 0.00 | 0.00 | 63 | 1018.4 |
| 20260508071105 | 5 | 9 | 3.2 | 4.8 | 0.00 | 0.00 | 0.00 | 63 | 1018.5 |
| 20260508070105 | 5 | 11 | 1.6 | 4.8 | 0.00 | 0.00 | 0.00 | 61 | 1018.5 |
| 20260508064105 | 6 | 9 | 1.6 | 3.2 | 0.00 | 0.00 | 0.00 | 60 | 1018.5 |
| 20260508063604 | 6 | 9 | 1.6 | 4.8 | 0.00 | 0.00 | 0.00 | 62 | 1018.5 |
| 20260508063104 | 6 | 9 | 3.2 | 8.0 | 0.00 | 0.00 | 0.00 | 61 | 1018.5 |
| 20260508061604 | 6 | 9 | 3.2 | 4.8 | 0.00 | 0.00 | 0.00 | 62 | 1018.6 |
| 20260508061107 | 6 | 10 | 1.6 | 4.8 | 0.00 | 0.00 | 0.00 | 61 | 1018.6 |
| 20260508060104 | 6 | 9 | 3.2 | 8.0 | 0.00 | 0.00 | 0.00 | 60 | 1018.6 |
| 20260508054604 | 7 | 10 | 1.6 | 8.0 | 0.00 | 0.00 | 0.00 | 57 | 1018.6 |
| 20260508054104 | 7 | 9 | 1.6 | 4.8 | 0.00 | 0.00 | 0.00 | 57 | 1018.6 |
| 20260508053605 | 7 | 9 | 3.2 | 4.8 | 0.00 | 0.00 | 0.00 | 56 | 1018.6 |
| 20260508053105 | 7 | 9 | 4.8 | 11.3 | 0.00 | 0.00 | 0.00 | 56 | 1018.5 |
| 20260508051604 | 7 | 9 | 1.6 | 4.8 | 0.00 | 0.00 | 0.00 | 57 | 1018.6 |
| 20260508051104 | 7 | 9 | 1.6 | 4.8 | 0.00 | 0.00 | 0.00 | 57 | 1018.5 |
| 20260508050105 | 7 | 9 | 4.8 | 9.7 | 0.00 | 0.00 | 0.00 | 56 | 1018.6 |
| 20260508044604 | 7 | 9 | 6.4 | 9.7 | 0.00 | 0.00 | 0.00 | 54 | 1018.7 |
| 20260508044104 | 7 | 9 | 1.6 | 8.0 | 0.00 | 0.00 | 0.00 | 56 | 1018.6 |
| 20260508043604 | 8 | 9 | 1.6 | 4.8 | 0.00 | 0.00 | 0.00 | 54 | 1018.5 |
| 20260508043104 | 8 | 9 | 0.0 | 1.6 | 0.00 | 0.00 | 0.00 | 54 | 1018.6 |
| 20260508041605 | 8 | 9 | 1.6 | 3.2 | 0.00 | 0.00 | 0.00 | 52 | 1018.6 |
| 20260508041104 | 8 | 9 | 1.6 | 3.2 | 0.00 | 0.00 | 0.00 | 52 | 1018.6 |
| 20260508040604 | 8 | 9 | 1.6 | 3.2 | 0.00 | 0.00 | 0.00 | 51 | 1018.6 |
| 20260508040104 | 8 | 9 | 1.6 | 4.8 | 0.00 | 0.00 | 0.00 | 51 | 1018.6 |
| 20260508034604 | 10 | 9 | 4.8 | 4.8 | 0.00 | 0.00 | 0.00 | 48 | 1018.6 |
| 20260508033605 | 10 | 15 | 0.0 | 4.8 | 0.00 | 0.00 | 0.00 | 46 | 1018.4 |
| 20260508033104 | 10 | 15 | 1.6 | 4.8 | 0.00 | 0.00 | 0.00 | 45 | 1018.3 |
| 20260508031604 | 10 | 2 | 3.2 | 4.8 | 0.00 | 0.00 | 0.00 | 47 | 1018.3 |
| 20260508031104 | 10 | 7 | 4.8 | 4.8 | 0.00 | 0.00 | 0.00 | 48 | 1018.2 |
| 20260508030604 | 11 | 7 | 4.8 | 4.8 | 0.00 | 0.00 | 0.00 | 45 | 1018.2 |
| 20260508030105 | 11 | 5 | 3.2 | 4.8 | 0.00 | 0.00 | 0.00 | 45 | 1018.2 |
| 20260508024604 | 12 | 15 | 1.6 | 4.8 | 0.00 | 0.00 | 0.00 | 41 | 1017.9 |
| 20260508024104 | 12 | 15 | 1.6 | 4.8 | 0.00 | 0.00 | 0.00 | 40 | 1017.9 |
| 20260508023604 | 12 | 13 | 3.2 | 8.0 | 0.00 | 0.00 | 0.00 | 40 | 1017.8 |
| 20260508023104 | 12 | 12 | 3.2 | 9.7 | 0.00 | 0.00 | 0.00 | 40 | 1017.8 |
| 20260508021604 | 12 | 15 | 1.6 | 4.8 | 0.00 | 0.00 | 0.00 | 39 | 1018.0 |
| 20260508021104 | 12 | 15 | 3.2 | 8.0 | 0.00 | 0.00 | 0.00 | 40 | 1018.1 |
| 20260508020604 | 12 | 14 | 3.2 | 8.0 | 0.00 | 0.00 | 0.00 | 40 | 1018.1 |
| 20260508020104 | 13 | 15 | 1.6 | 9.7 | 0.00 | 0.00 | 0.00 | 40 | 1018.1 |
| 20260508014604 | 13 | 12 | 1.6 | 4.8 | 0.00 | 0.00 | 0.00 | 39 | 1017.8 |
| 20260508013604 | 13 | 15 | 1.6 | 9.7 | 0.00 | 0.00 | 0.00 | 39 | 1017.9 |
| 20260508013104 | 13 | 14 | 3.2 | 19.3 | 0.00 | 0.00 | 0.00 | 38 | 1017.9 |
| 20260508011604 | 13 | 15 | 4.8 | 9.7 | 0.00 | 0.00 | 0.00 | 37 | 1017.8 |
| 20260508011104 | 14 | 13 | 1.6 | 4.8 | 0.00 | 0.00 | 0.00 | 39 | 1017.8 |
| 20260508010105 | 14 | 14 | 1.6 | 4.8 | 0.00 | 0.00 | 0.00 | 38 | 1018.1 |
| 20260508004604 | 14 | 15 | 3.2 | 8.0 | 0.00 | 0.00 | 0.00 | 38 | 1018.3 |
| 20260508004104 | 14 | 14 | 4.8 | 9.7 | 0.00 | 0.00 | 0.00 | 37 | 1018.3 |
| 20260508003604 | 13 | 14 | 4.8 | 14.5 | 0.00 | 0.00 | 0.00 | 39 | 1018.4 |
| 20260508001604 | 13 | 14 | 1.6 | 9.7 | 0.00 | 0.00 | 0.00 | 39 | 1018.7 |
| 20260508000604 | 13 | 14 | 3.2 | 11.3 | 0.00 | 0.00 | 0.00 | 38 | 1018.7 |
| 20260508000104 | 13 | 14 | 8.0 | 20.9 | 0.00 | 0.00 | 0.00 | 38 | 1018.7 |
| 20260507234604 | 14 | 11 | 4.8 | 11.3 | 0.00 | 0.00 | 0.00 | 39 | 1018.7 |
| 20260507234104 | 14 | 14 | 6.4 | 19.3 | 0.00 | 0.00 | 0.00 | 37 | 1018.7 |
| 20260507233604 | 14 | 14 | 8.0 | 22.5 | 0.00 | 0.00 | 0.00 | 37 | 1018.7 |
| 20260507233103 | 15 | 14 | 4.8 | 19.3 | 0.00 | 0.00 | 0.00 | 38 | 1018.8 |
| 20260507231604 | 15 | 14 | 6.4 | 16.1 | 0.00 | 0.00 | 0.00 | 36 | 1019.0 |
| 20260507231103 | 15 | 14 | 8.0 | 19.3 | 0.00 | 0.00 | 0.00 | 34 | 1018.9 |
| 20260507230604 | 15 | 13 | 9.7 | 20.9 | 0.00 | 0.00 | 0.00 | 34 | 1019.1 |
| 20260507230104 | 15 | 15 | 3.2 | 29.0 | 0.00 | 0.00 | 0.00 | 34 | 1019.1 |
| 20260507224604 | 16 | 14 | 8.0 | 22.5 | 0.00 | 0.00 | 0.00 | 31 | 1019.2 |
| 20260507224104 | 16 | 12 | 11.3 | 33.8 | 0.00 | 0.00 | 0.00 | 31 | 1019.0 |
| 20260507223604 | 16 | 13 | 9.7 | 27.4 | 0.00 | 0.00 | 0.00 | 32 | 1019.2 |
| 20260507221604 | 16 | 13 | 11.3 | 27.4 | 0.00 | 0.00 | 0.00 | 32 | 1019.3 |
| 20260507221104 | 16 | 11 | 9.7 | 25.7 | 0.00 | 0.00 | 0.00 | 34 | 1019.3 |
| 20260507220604 | 16 | 12 | 8.0 | 22.5 | 0.00 | 0.00 | 0.00 | 33 | 1019.2 |
| 20260507220104 | 16 | 14 | 9.7 | 22.5 | 0.00 | 0.00 | 0.00 | 33 | 1019.2 |
| 20260507214604 | 15 | 14 | 11.3 | 20.9 | 0.00 | 0.00 | 0.00 | 35 | 1019.6 |
| 20260507214104 | 15 | 13 | 8.0 | 19.3 | 0.00 | 0.00 | 0.00 | 34 | 1019.6 |
| 20260507213604 | 16 | 13 | 6.4 | 22.5 | 0.00 | 0.00 | 0.00 | 33 | 1019.7 |
| 20260507213105 | 16 | 14 | 11.3 | 24.1 | 0.00 | 0.00 | 0.00 | 33 | 1019.8 |
| 20260507211605 | 17 | 13 | 8.0 | 22.5 | 0.00 | 0.00 | 0.00 | 34 | 1020.0 |
| 20260507211105 | 17 | 13 | 8.0 | 19.3 | 0.00 | 0.00 | 0.00 | 34 | 1020.1 |
| 20260507210605 | 17 | 11 | 6.4 | 29.0 | 0.00 | 0.00 | 0.00 | 34 | 1020.3 |
| 20260507210105 | 16 | 13 | 8.0 | 25.7 | 0.00 | 0.00 | 0.00 | 36 | 1020.3 |
| 20260507203605 | 16 | 13 | 9.7 | 25.7 | 0.00 | 0.00 | 0.00 | 34 | 1020.7 |
| 20260507203104 | 15 | 12 | 8.0 | 25.7 | 0.00 | 0.00 | 0.00 | 38 | 1020.5 |
| 20260507201605 | 16 | 13 | 8.0 | 19.3 | 0.00 | 0.00 | 0.00 | 34 | 1020.5 |
| 20260507201105 | 16 | 13 | 4.8 | 20.9 | 0.00 | 0.00 | 0.00 | 33 | 1020.5 |
| 20260507200605 | 16 | 12 | 4.8 | 20.9 | 0.00 | 0.00 | 0.00 | 34 | 1020.3 |
| 20260507200105 | 16 | 12 | 12.9 | 29.0 | 0.00 | 0.00 | 0.00 | 32 | 1020.4 |
| 20260507194604 | 17 | 13 | 8.0 | 22.5 | 0.00 | 0.00 | 0.00 | 33 | 1020.8 |
| 20260507194105 | 17 | 12 | 9.7 | 24.1 | 0.00 | 0.00 | 0.00 | 31 | 1020.8 |
| 20260507193104 | 17 | 13 | 8.0 | 27.4 | 0.00 | 0.00 | 0.00 | 32 | 1020.7 |
| 20260507190605 | 17 | 12 | 8.0 | 22.5 | 0.00 | 0.00 | 0.00 | 32 | 1021.1 |
| 20260507190105 | 17 | 10 | 4.8 | 24.1 | 0.00 | 0.00 | 0.00 | 33 | 1021.3 |
| 20260507184605 | 17 | 12 | 8.0 | 22.5 | 0.00 | 0.00 | 0.00 | 32 | 1021.4 |
| 20260507184105 | 17 | 13 | 8.0 | 25.7 | 0.00 | 0.00 | 0.00 | 33 | 1021.5 |
| 20260507183605 | 17 | 12 | 8.0 | 20.9 | 0.00 | 0.00 | 0.00 | 33 | 1021.4 |
| 20260507183105 | 17 | 13 | 11.3 | 27.4 | 0.00 | 0.00 | 0.00 | 33 | 1021.6 |
| 20260507181605 | 16 | 12 | 8.0 | 19.3 | 0.00 | 0.00 | 0.00 | 34 | 1021.9 |
| 20260507181105 | 16 | 13 | 6.4 | 19.3 | 0.00 | 0.00 | 0.00 | 34 | 1022.1 |
| 20260507180605 | 16 | 13 | 8.0 | 22.5 | 0.00 | 0.00 | 0.00 | 34 | 1022.3 |
| 20260507174604 | 16 | 14 | 8.0 | 27.4 | 0.00 | 0.00 | 0.00 | 34 | 1022.5 |
| 20260507174105 | 15 | 13 | 6.4 | 19.3 | 0.00 | 0.00 | 0.00 | 36 | 1022.6 |
| 20260507173604 | 15 | 12 | 11.3 | 19.3 | 0.00 | 0.00 | 0.00 | 35 | 1022.6 |
| 20260507171605 | 13 | 14 | 8.0 | 16.1 | 0.00 | 0.00 | 0.00 | 38 | 1023.2 |
| 20260507171105 | 12 | 12 | 8.0 | 12.9 | 0.00 | 0.00 | 0.00 | 39 | 1023.4 |
| 20260507170605 | 12 | 14 | 6.4 | 16.1 | 0.00 | 0.00 | 0.00 | 41 | 1023.5 |
| 20260507170105 | 11 | 12 | 3.2 | 9.7 | 0.00 | 0.00 | 0.00 | 42 | 1023.6 |
| 20260507164605 | 11 | 15 | 3.2 | 4.8 | 0.00 | 0.00 | 0.00 | 42 | 1023.8 |
| 20260507164105 | 11 | 14 | 1.6 | 4.8 | 0.00 | 0.00 | 0.00 | 40 | 1024.0 |
| 20260507163105 | 11 | 14 | 3.2 | 11.3 | 0.00 | 0.00 | 0.00 | 41 | 1024.1 |
| 20260507161605 | 10 | 13 | 3.2 | 4.8 | 0.00 | 0.00 | 0.00 | 46 | 1024.2 |
| 20260507161105 | 10 | 13 | 4.8 | 9.7 | 0.00 | 0.00 | 0.00 | 44 | 1024.3 |
| 20260507160605 | 10 | 12 | 4.8 | 12.9 | 0.00 | 0.00 | 0.00 | 45 | 1024.5 |
| 20260507160105 | 10 | 13 | 4.8 | 8.0 | 0.00 | 0.00 | 0.00 | 45 | 1024.6 |
| 20260507154604 | 8 | 11 | 3.2 | 4.8 | 0.00 | 0.00 | 0.00 | 54 | 1024.7 |
| 20260507154104 | 8 | 12 | 1.6 | 3.2 | 0.00 | 0.00 | 0.00 | 56 | 1024.7 |
| 20260507153605 | 8 | 13 | 1.6 | 4.8 | 0.00 | 0.00 | 0.00 | 56 | 1024.9 |